Observations for CERVIA IT-AFB, Italy (LIPC)

LIPC 100155Z 27013KT CAVOK 10/00 Q1009  
LIPC 100155Z 27013KT CAVOK 10/00 Q1009 RMK SKC VIS MIN 9999 WIND THR11 28013KT WIND THR29 28014KT BLU
LIPC 100055Z 28010KT CAVOK 09/M00 Q1009 
LIPC 100055Z 28010KT CAVOK 09/M00 Q1009 RMK SKC VIS MIN 9999 WIND THR11 27010KTWIND THR29 26011KT BLU
LIPC 092355Z 27011KT CAVOK 08/M00 Q1009 
LIPC 092355Z 27011KT CAVOK 08/M00 Q1009 RMK SKC VIS MIN 9999 WIND THR11 27010KTWIND THR29 26011KT BLU
LIPC 092255Z 25008KT CAVOK 08/01 Q1008  
LIPC 092255Z 25008KT CAVOK 08/01 Q1008 RMK SKC VIS MIN 9999 WIND THR11 25008KT WIND THR29 25009KT BLU
LIPC 092155Z 25010KT CAVOK 08/03 Q1008  
LIPC 092155Z 25010KT CAVOK 08/03 Q1008 RMK SKC VIS MIN 9999 WIND THR11 25009KT WIND THR29 25010KT BLU
LIPC 092055Z 21004KT CAVOK 04/02 Q1008  
LIPC 092055Z 21004KT CAVOK 04/02 Q1008 RMK SKC VIS MIN 9999 WIND THR11 21004KT WIND THR29 22004KT BLU
LIPC 091955Z 24005KT CAVOK 04/03 Q1008  
LIPC 091955Z 24005KT CAVOK 04/03 Q1008 RMK SKC VIS MIN 9999 WIND THR11 24004KT WIND THR29 24005KT BLU
LIPC 091855Z 21004KT CAVOK 04/02 Q1008  
LIPC 091855Z 21004KT CAVOK 04/02 Q1008 RMK SKC VIS MIN 9999 WIND THR11 21004KT WIND THR29 23004KT BLU
LIPC 091755Z 09001KT CAVOK 05/03 Q1008  
LIPC 091755Z 09001KT CAVOK 05/03 Q1008 RMK SKC VIS MIN 9999 WIND THR11 31002KT WIND THR29 02001KT BLU
LIPC 091655Z 25008KT CAVOK 07/05 Q1008  
LIPC 091655Z 25008KT CAVOK 07/05 Q1008 RMK SKC VIS MIN 9999 WIND THR11 26007KT WIND THR29 26007KT BLU
LIPC 091555Z 28006KT 5000 BR NSC 07/06 Q1008
LIPC 091555Z 28006KT 5000 BR NSC 07/06 Q1008 RMK SCT SCT070 VIS MIN 5000 WIND THR11 WIND THR29 WHT
LIPC 091455Z 27007KT 7000 NSC 08/06 Q1007   
LIPC 091455Z 27007KT 7000 NSC 08/06 Q1007 RMK FEW FEW070 VIS MIN 7000 WIND THR11 27007KT WIND THR29 27007KT WHT
LIPC 091355Z 31011KT CAVOK 10/07 Q1006  
LIPC 091355Z 31011KT CAVOK 10/07 Q1006 RMK SKC VIS MIN 9999 WIND THR11 31012KT WIND THR29 31013KT BLU
LIPC 091255Z 32010KT CAVOK 11/07 Q1006  
LIPC 091255Z 32010KT CAVOK 11/07 Q1006 RMK SKC VIS MIN 9999 WIND THR11 31010KT WIND THR29 32011KT BLU
LIPC 091155Z 31012G22KT CAVOK 14/08 Q1005   
LIPC 091155Z 31012G22KT CAVOK 14/08 Q1005 RMK SKC VIS MIN 9999 WIND THR11 30013KT WIND THR29 29016G30KT BLU
LIPC 091112Z 26020G33KT CAVOK 16/08 Q1005 RMK SKC VIS MIN 9999 WIND THR11 26020KT WIND THR29 26022KT BLU
LIPC 091055Z 25021KT CAVOK 16/08 Q1005  
LIPC 091055Z 25021KT CAVOK 16/08 Q1005 RMK SKC VIS MIN 9999 WIND THR11 25020KT WIND THR29 26021KT BLU
LIPC 090955Z 25015KT CAVOK 15/08 Q1006  
LIPC 090955Z 25015KT CAVOK 15/08 Q1006 RMK SKC VIS MIN 9999 WIND THR11 26012KT WIND THR29 26019KT BLU
LIPC 090855Z 25015KT CAVOK 15/08 Q1006  
LIPC 090855Z 25015KT CAVOK 15/08 Q1006 RMK SKC VIS MIN 9999 WIND THR11 25011G21KT WIND THR29 25008KT BLU
LIPC 090755Z 25010KT CAVOK 13/08 Q1007  
LIPC 090755Z 25010KT CAVOK 13/08 Q1007 RMK SKC VIS MIN 9999 WIND THR11 26010KT WIND THR29 24004KT BLU
LIPC 090655Z 20003KT CAVOK 12/06 Q1007  
LIPC 090655Z 20003KT CAVOK 12/06 Q1007 RMK SKC VIS MIN 9999 WIND THR11 20006KT WIND THR29 22005KT BLU
LIPC 090555Z 20007KT CAVOK 10/04 Q1009  
LIPC 090555Z 20007KT CAVOK 10/04 Q1009 RMK SKC VIS MIN 9999 WIND THR11 20006KT WIND THR29 22005KT BLU
LIPC 090455Z 23006KT CAVOK 09/04 Q1010  
LIPC 090455Z 23006KT CAVOK 09/04 Q1010 RMK SKC VIS MIN 9999 WIND THR11 22005KT WIND THR29 24005KT BLU
LIPC 090355Z 22008KT CAVOK 07/02 Q1011  
LIPC 090355Z 22008KT CAVOK 07/02 Q1011 RMK SKC VIS MIN 9999 WIND THR11 21007KT WIND THR29 23008KT BLU
LIPC 090255Z 20007KT CAVOK 05/M01 Q1012 
LIPC 090255Z 20007KT CAVOK 05/M01 Q1012 RMK SKC VIS MIN 9999 WIND THR11 20005K WIND THR29 21005KT BLU
LIPC 090155Z 21008KT CAVOK 05/M01 Q1013 
LIPC 090155Z 21008KT CAVOK 05/M01 Q1013 RMK SKC VIS MIN 9999 WIND THR11 21007KTWIND THR29 21006KT BLU